PEGASUS DEB

Satellite information

Favourite Embed

Satellite Type and Status

DEBRISIN ORBIT

Key statistics

Satellite PEGASUS DEB at a glance.

Uptime

11532

Days in orbit

Revolutions

≈ 14.5

Per day

Orbit

LEO

Low Earth Orbit

Inclination

81.8

Latest

Satellite identification and parameters

Extended collection of information and parameters for PEGASUS DEB.

Object identification

Identified? True

Debris? True

Object name: PEGASUS DEB

International designator: 1994-029AEV

Object number (NORAD): 39310

Object ID (CCSDS): 39310

Country: UNITED STATES OF AMERICA (US)

Current information (Y/N): Y

RCS size: SMALL

Orbital parameters

Period: 99.214 minutes

Inclination: 81.8145 deg

SMA: 7099.211 km

Apoapsis: 887.504 km

Periapsis: 554.647 km

RAAN: 246.0857 deg

Eccentricy: 0.02344327

Argument of periapsis: 193.4963 deg

Mean anomaly: 165.9898 deg

Mean motion: 14.51401855 rev/day

Mean motion (dot): 0.00005744 rev/day2

B* drag term: 0.0010020444 1/REarth

Two-line elements (TLE)

Creation date: Dec. 9, 2025, 5:41 p.m.

Reference frame: TEME

Reference center: EARTH

Epoch: Dec. 9, 2025, 11:15 a.m. UTC

TLE line 0: 0 PEGASUS DEB

TLE line 1: 1 39310U 94029AEV 25343.46915362 .00005744 00000-0 10020-2 0 9998

TLE line 2: 2 39310 81.8145 246.0857 0234433 193.4963 165.9898 14.51401855816646

Live tracking on map

Real-time ground track for satellite PEGASUS DEB.

In-orbit conjunctions

A list of the most updated potential collisions computed for object PEGASUS DEB.

Target Orbit TCA Probability of collision Miss distance Type
CZ-6A DEB SSO 2025-07-23 01:23:42 0.0007612406 52.0 (m) DEBRIS
FENGYUN 1C DEB SSO 2024-12-26 09:35:15 0.0001413363 133.0 (m) DEBRIS

Associated space launch

PEGASUS DEB was lifted into orbit during the mission ‘Pegasus HAPS | Space Test Experiments Platform 2 (STEP-2)’, on board a Pegasus HAPS space rocket.

The launch took place on May 19, 1994, 5:03 p.m. from Edwards Air Force Base.

For more information about the launch, click the button.

Launch to space Pegasus HAPS | Space Test Experiments Platform 2 (STEP-2)
Pegasus HAPS | Space Test Experiments Platform 2 (STEP-2)

Agency: N/A

Status: Launch Successful

Launch date: May 19, 1994, 5:03 p.m. UTC

Rocket: Pegasus HAPS

Launch pad: Edwards Air Force Base

Location: Air launch to orbit

...

Latest news about this satellite

There are no fresh news available about this satellite. Check back as we update our databases every day.


Newsletter sign-up

Weekly statistics, charts and insights to help you stay on top of the space industry.